Погода в Приливе

Россия / Ивановская область     56°52′43″N   41°24′04″E
темп.,
°C
ветер,
м/с
пор.,
м/с
влажн.,
%
обл.,
%
осадки,
мм/ч
давл.,
гПа
погр.,
м
27 ноября, сб
сб2700:00+1юз61396100 0.1 1009708
03:00+1юз51195100 0.1 1010625
06:00+1ююз4999100 0.0 1010452
09:00+1ю4999100 0.3 1012439
12:00+1ю51295100 0.4 1011534
15:00−1ююв51288100 0.4 1010466
18:000ююв61591100 0.0 1007542
21:00+1ююв71698100 0.6 1005789
28 ноября, вс
вс2800:000ююв71597100 1.8 1002826
03:00+1ю71598100 2.3 1001717
06:00+2ю61499100 0.6 1001687
09:00+2ю61399100 0.8 1001650
12:00+3ююз51298100 0.0 1002629
15:00+2юз51194100 0.1 1004539
18:00+2ююз51189100 0.0 1005401
21:00+1юз51191100 0.0 1007422
29 ноября, пн
пн2900:00−1юз4994100 0.0 1010263
03:00−2ююз379699 0.0 1011147
06:00−1ю2494100 0.0 1011135
09:000ююв2697100 0.7 1012213
12:00+1в3694100 0.1 1010243
15:00+1вюв51199100 0.1 1007298
18:00+2вюв61398100 0.3 1003359
21:00+3вюв61498100 1.7 998518
30 ноября, вт
вт3000:00+3юв61498100 2.6 992557
03:00+4юв61496100 3.6 986604
06:00+5юв61696100 3.3 980702
09:00+8ю71693100 5.0 976661
12:00+5ю101593100 0.9 973779
15:00+1ююз101896100 4.4 975971
18:00+1юз101897100 3.1 9781103
21:00+2юз91783100 4.0 9801157
1 декабря, ср
ср100:000ююз81595100 0.3 9811010
03:000ююз71497100 1.6 981928
06:00−1юз5993100 0.6 984634
09:00−3з5991100 0.9 987736
12:00−3з4893100 0.5 989685
15:00−4з4783100 1.1 991849
18:00−4з4785100 0.1 993895
21:00−6з4887100 0.1 993576